Juneau, WI

9:11 AM CDT on May 23, 2017 (GMT -0500)
Dodge County

Weather History for KUNU - November, 2012

Change the Weather History Date:

Saturday, November 24, 2012

  Actual Average Record
Temperature  
Mean Temperature 26 °F -  
Max Temperature 30 °F 41 °F 60 °F (2001)
Min Temperature 23 °F 28 °F 4 °F (1985)
Degree Days  
Heating Degree Days 38    
Moisture  
Dew Point 14 °F    
Average Humidity 60    
Maximum Humidity 64    
Minimum Humidity 47    
Precipitation  
Precipitation 0.00 in - - ()
Sea Level Pressure  
Sea Level Pressure 30.12 in    
Wind  
Wind Speed 9 mph (WSW)    
Max Wind Speed 13 mph    
Max Gust Speed 22 mph    
Visibility 10 miles    
Events Snow    
Averages and records for this station are not official NWS values.
T = Trace of Precipitation, MM = Missing Value Source: NWS Daily Summary

Daily Weather History Graph

Daily Weather History Graph

Search for Another Location

Airport or City:

Trip Planner

Search our weather history database for the weather conditions in past years. The results will help you decide how hot, cold, wet, or windy it might be!

Date:

Astronomy

Nov. 24, 2012 Rise Set
Actual Time 7:00 AM CST 4:22 PM CST
Civil Twilight 6:28 AM CST 4:54 PM CST
Nautical Twilight 5:53 AM CST 5:29 PM CST
Astronomical Twilight 5:19 AM CST 6:03 PM CST
Moon 2:11 PM CST (11/24) 3:11 AM CST (11/24)
Length of Visible Light 10h 25m
Length of Day
9h 22m
Waxing Gibbous, 87% of the Moon is Illuminated
Nov 24
Waxing Gibbous
Nov 28
Full
Dec 6
Last Quarter
Dec 13
New
Dec 19
First Quarter

Hourly Weather History & Observations

Time (CST) Temp. Windchill Dew Point Humidity Pressure Visibility Wind Dir Wind Speed Gust Speed Precip Events Conditions
12:15 AM 24.8 °F 13.4 °F 12.2 °F 59% 30.20 in 10.0 mi WNW 12.7 mph 21.9 mph N/A   Overcast
12:35 AM 24.8 °F 13.4 °F 12.2 °F 59% 30.20 in 10.0 mi WNW 12.7 mph 19.6 mph N/A   Overcast
12:55 AM 24.8 °F 13.4 °F 12.2 °F 59% 30.20 in 10.0 mi WNW 12.7 mph 17.3 mph N/A   Overcast
1:15 AM 24.8 °F 14.0 °F 12.2 °F 59% 30.20 in 10.0 mi WNW 11.5 mph 17.3 mph N/A   Overcast
1:35 AM 24.8 °F 13.4 °F 12.2 °F 59% 30.21 in 10.0 mi WNW 12.7 mph 18.4 mph N/A   Overcast
1:55 AM 24.8 °F 14.6 °F 12.2 °F 59% 30.22 in 10.0 mi WNW 10.4 mph 17.3 mph N/A   Overcast
2:15 AM 23.0 °F 13.9 °F 12.2 °F 63% 30.22 in 10.0 mi WNW 8.1 mph 21.9 mph N/A   Overcast
2:35 AM 23.0 °F 12.4 °F 12.2 °F 63% 30.22 in 10.0 mi NW 10.4 mph 18.4 mph N/A Snow Light Snow
2:55 AM 23.0 °F 13.1 °F 12.2 °F 63% 30.22 in 10.0 mi WNW 9.2 mph 19.6 mph N/A Snow Light Snow
3:15 AM 23.0 °F 13.1 °F 12.2 °F 63% 30.22 in 10.0 mi NW 9.2 mph 16.1 mph N/A Snow Light Snow
3:35 AM 23.0 °F 13.9 °F 12.2 °F 63% 30.22 in 10.0 mi NW 8.1 mph 16.1 mph N/A   Overcast
3:55 AM 23.0 °F 11.7 °F 12.2 °F 63% 30.22 in 10.0 mi WNW 11.5 mph 18.4 mph N/A Snow Light Snow
4:15 AM 23.0 °F 13.1 °F 12.2 °F 63% 30.22 in 10.0 mi NW 9.2 mph 16.1 mph N/A Snow Light Snow
4:35 AM 23.0 °F 13.1 °F 12.2 °F 63% 30.22 in 10.0 mi NW 9.2 mph 17.3 mph N/A   Overcast
4:55 AM 23.0 °F 13.1 °F 10.4 °F 59% 30.22 in 10.0 mi WNW 9.2 mph - N/A   Overcast
5:15 AM 23.0 °F 14.7 °F 10.4 °F 59% 30.22 in 10.0 mi NW 6.9 mph - N/A   Overcast
5:35 AM 23.0 °F 13.1 °F 12.2 °F 63% 30.23 in 10.0 mi WNW 9.2 mph - N/A   Overcast
5:55 AM 23.0 °F 13.9 °F 10.4 °F 59% 30.22 in 10.0 mi NW 8.1 mph - N/A   Overcast
6:15 AM 23.0 °F 13.1 °F 10.4 °F 59% 30.23 in 10.0 mi NW 9.2 mph 16.1 mph N/A Snow Light Snow
6:35 AM 23.0 °F 13.9 °F 12.2 °F 63% 30.23 in 10.0 mi NW 8.1 mph - N/A   Overcast
6:55 AM 23.0 °F 12.4 °F 10.4 °F 59% 30.22 in 10.0 mi NNW 10.4 mph - N/A   Overcast
7:15 AM 23.0 °F 13.9 °F 10.4 °F 59% 30.23 in 10.0 mi NNW 8.1 mph - N/A   Overcast
7:35 AM 23.0 °F 14.7 °F 12.2 °F 63% 30.23 in 10.0 mi NW 6.9 mph - N/A   Overcast
7:55 AM 23.0 °F 13.1 °F 10.4 °F 59% 30.24 in 10.0 mi NNW 9.2 mph - N/A   Overcast
8:15 AM 23.0 °F 12.4 °F 12.2 °F 63% 30.24 in 10.0 mi NNW 10.4 mph - N/A   Overcast
8:35 AM 23.0 °F 13.9 °F 10.4 °F 59% 30.23 in 10.0 mi NNW 8.1 mph - N/A   Overcast
8:55 AM 23.0 °F 14.7 °F 12.2 °F 63% 30.23 in 10.0 mi NW 6.9 mph - N/A   Overcast
9:15 AM 23.0 °F 14.7 °F 10.4 °F 59% 30.23 in 10.0 mi NW 6.9 mph - N/A   Overcast
9:35 AM 23.0 °F 13.9 °F 10.4 °F 59% 30.23 in 10.0 mi NW 8.1 mph - N/A   Overcast
9:55 AM 23.0 °F 13.1 °F 10.4 °F 59% 30.23 in 10.0 mi NNW 9.2 mph - N/A   Overcast
10:15 AM 24.8 °F 16.9 °F 12.2 °F 59% 30.23 in 10.0 mi WNW 6.9 mph - N/A   Overcast
10:35 AM 23.0 °F 14.7 °F 12.2 °F 63% 30.22 in 10.0 mi NW 6.9 mph - N/A   Overcast
10:55 AM 24.8 °F - 12.2 °F 59% 30.21 in 10.0 mi Calm Calm - N/A   Overcast
11:15 AM 23.0 °F 15.8 °F 12.2 °F 63% 30.20 in 10.0 mi WSW 5.8 mph - N/A   Overcast
11:35 AM 26.6 °F 20.0 °F 12.2 °F 55% 30.19 in 10.0 mi West 5.8 mph - N/A   Mostly Cloudy
11:55 AM 26.6 °F 21.2 °F 12.2 °F 55% 30.19 in 10.0 mi WSW 4.6 mph - N/A   Mostly Cloudy
12:15 PM 26.6 °F 20.0 °F 12.2 °F 55% 30.17 in 10.0 mi West 5.8 mph - N/A   Scattered Clouds
12:35 PM 26.6 °F 18.2 °F 12.2 °F 55% 30.16 in 10.0 mi WSW 8.1 mph - N/A   Clear
12:55 PM 28.4 °F 23.3 °F 12.2 °F 51% 30.15 in 10.0 mi SSW 4.6 mph - N/A   Clear
1:15 PM 28.4 °F 20.4 °F 12.2 °F 51% 30.15 in 10.0 mi WSW 8.1 mph - N/A   Clear
1:35 PM 28.4 °F 22.2 °F 12.2 °F 51% 30.15 in 10.0 mi SW 5.8 mph - N/A   Clear
1:55 PM 28.4 °F 23.3 °F 10.4 °F 47% 30.13 in 10.0 mi WSW 4.6 mph - N/A   Clear
2:15 PM 28.4 °F 21.2 °F 10.4 °F 47% 30.12 in 10.0 mi SSW 6.9 mph - N/A   Clear
2:35 PM 28.4 °F 23.3 °F 12.2 °F 51% 30.11 in 10.0 mi SSW 4.6 mph - N/A   Clear
2:55 PM 28.4 °F 22.2 °F 12.2 °F 51% 30.09 in 10.0 mi SSW 5.8 mph - N/A   Clear
3:15 PM 28.4 °F 20.4 °F 12.2 °F 51% 30.10 in 10.0 mi SW 8.1 mph - N/A   Clear
3:35 PM 28.4 °F 22.2 °F 12.2 °F 51% 30.09 in 10.0 mi South 5.8 mph - N/A   Clear
3:55 PM 28.4 °F 22.2 °F 12.2 °F 51% 30.09 in 10.0 mi South 5.8 mph - N/A   Clear
4:15 PM 28.4 °F 23.3 °F 14.0 °F 55% 30.08 in 10.0 mi South 4.6 mph - N/A   Clear
4:35 PM 28.4 °F 22.2 °F 14.0 °F 55% 30.07 in 10.0 mi South 5.8 mph - N/A   Scattered Clouds
4:55 PM 26.6 °F 21.2 °F 14.0 °F 59% 30.07 in 10.0 mi South 4.6 mph - N/A   Clear
5:15 PM 26.6 °F 21.2 °F 14.0 °F 59% 30.05 in 10.0 mi SE 4.6 mph - N/A   Scattered Clouds
5:35 PM 26.6 °F 20.0 °F 15.8 °F 64% 30.04 in 10.0 mi SE 5.8 mph - N/A   Mostly Cloudy
5:55 PM 26.6 °F 19.1 °F 15.8 °F 64% 30.03 in 10.0 mi SE 6.9 mph - N/A   Overcast
6:15 PM 26.6 °F 18.2 °F 15.8 °F 64% 30.02 in 10.0 mi SE 8.1 mph - N/A   Mostly Cloudy
6:35 PM 28.4 °F 21.2 °F 17.6 °F 64% 30.01 in 10.0 mi SSE 6.9 mph - N/A   Overcast
6:55 PM 28.4 °F 20.4 °F 17.6 °F 64% 30.00 in 10.0 mi SSE 8.1 mph - N/A   Overcast
7:15 PM 28.4 °F 20.4 °F 17.6 °F 64% 30.00 in 10.0 mi SE 8.1 mph - N/A   Overcast
7:35 PM 28.4 °F 20.4 °F 17.6 °F 64% 29.99 in 10.0 mi SE 8.1 mph - N/A   Overcast
7:55 PM 28.4 °F 21.2 °F 17.6 °F 64% 29.99 in 10.0 mi SE 6.9 mph - N/A   Overcast
8:15 PM 28.4 °F 21.2 °F 17.6 °F 64% 29.98 in 10.0 mi SE 6.9 mph - N/A   Overcast
8:35 PM 28.4 °F 21.2 °F 17.6 °F 64% 29.98 in 10.0 mi SSE 6.9 mph - N/A   Mostly Cloudy
8:55 PM 28.4 °F 21.2 °F 17.6 °F 64% 29.97 in 10.0 mi SSE 6.9 mph - N/A   Overcast
9:15 PM 30.2 °F 22.6 °F 17.6 °F 60% 29.96 in 10.0 mi SSE 8.1 mph - N/A   Overcast
9:35 PM 28.4 °F 19.7 °F 17.6 °F 64% 29.94 in 10.0 mi SSE 9.2 mph - N/A   Overcast
9:55 PM 30.2 °F 22.6 °F 17.6 °F 60% 29.93 in 10.0 mi SSE 8.1 mph - N/A   Overcast
10:15 PM 30.2 °F 22.6 °F 19.4 °F 64% 29.92 in 10.0 mi SSE 8.1 mph - N/A   Overcast
10:35 PM 30.2 °F 21.3 °F 19.4 °F 64% 29.93 in 10.0 mi South 10.4 mph - N/A   Overcast
10:55 PM 30.2 °F 21.3 °F 19.4 °F 64% 29.92 in 10.0 mi South 10.4 mph - N/A   Overcast
11:15 PM 30.2 °F 21.9 °F 19.4 °F 64% 29.92 in 10.0 mi South 9.2 mph - N/A   Overcast
11:35 PM 30.2 °F 21.3 °F 19.4 °F 64% 29.90 in 10.0 mi South 10.4 mph - N/A   Overcast
11:55 PM 30.2 °F 21.3 °F 19.4 °F 64% 29.90 in 10.0 mi South 10.4 mph - N/A   Overcast